Location: Écuvilly
(49.6505°N, 2.9206°E)
Time: 02:04:15
(UTC+00:00)

CZ-2D R/B - Pass Details

Date: 17 November 2025
Orbit: 525 x 597 km, 98.0° (Epoch: 13 December)

Event Time Altitude Azimuth Distance (km) Brightness Sun altitude
Rises 17:45:38 0° 159° (SSE) 2,788 6.8 -16.4°
Reaches altitude 10° 17:47:45 10° 158° (SSE) 1,904 5.9 -16.8°
Maximum altitude 17:51:53 74° 74° (ENE) 621 3.3 -17.4°
Drops below altitude 10° 17:56:06 10° 349° (N) 1,947 6.1 -18.1°
Sets 17:58:18 0° 348° (NNW) 2,858 7.0 -18.5°
